[[{"header":{"parameterUnit":"m.s-1","parameterCategory":1,"la1":30.2991,"la2":30.254,"lo1":-89.0895,"lo2":-89.0444,"dy":0.0017,"dx":0.0017,"nx":28,"ny":28,"refTime":"2024-04-28T09:00:00:Z","depth":0,"parameterNumber":2,"parameterNumberName":"U-component_of_WINDS"},"data":[0,0,0,0,0,0,0,0,0,0,0,0,0,0,0,0,0,0,0,0,0,0,0,0,0,0,0,0,0,0,0,0,0,0,0,0,0,0,0,0,0,0,0,0,0,0,0,0,0,0,0,0,0,0,0,0,0,0,-2.7512,-2.7513,0,-2.7574,-2.7575,-2.7576,-2.756,-2.7559,-2.7557,-2.7556,-2.762,-2.7623,-2.7626,0,0,0,0,0,0,0,0,0,0,0,0,0,-2.7381,-2.7384,-2.7512,-2.7513,-2.7514,-2.7574,-2.7575,-2.7576,-2.756,-2.7558,-2.7557,-2.7556,-2.7619,-2.7623,-2.7626,0,0,0,0,0,0,0,0,0,0,0,0,0,-2.744,-2.7385,-2.7512,-2.7513,-2.7514,-2.7574,-2.7575,-2.7576,-2.756,-2.7558,-2.7557,-2.7555,-2.7618,-2.7622,-2.7627,-2.769,0,0,-2.764,-2.7642,0,0,0,0,0,0,0,0,-2.7437,-2.7445,-2.7512,-2.7513,-2.7514,-2.7557,-2.7552,-2.7614,-2.7561,-2.7543,-2.7556,-2.7554,-2.7601,-2.7606,-2.7622,-2.7693,-2.7696,-2.764,-2.7643,-2.7644,-2.7646,0,0,0,0,0,0,0,-2.7433,-2.7442,-2.7537,-2.7513,-2.7514,-2.7511,-2.7517,-2.7564,-2.7581,-2.7544,-2.7543,-2.7551,-2.7601,-2.7618,-2.7624,-2.7697,-2.764,-2.7644,-2.7646,-2.7648,-2.7822,-2.7824,0,0,0,0,0,0,-2.7428,-2.7439,-2.7535,-2.7539,-2.747,-2.7515,-2.7522,-2.7545,-2.7581,-2.7584,-2.7552,-2.755,-2.7612,-2.7619,-2.7626,-2.7702,-2.7644,-2.7648,-2.7651,-2.782,-2.7823,-2.7825,0,0,0,0,0,0,-2.7425,-2.7437,-2.7532,-2.7489,-2.7501,-2.7519,-2.7546,-2.7548,-2.7564,-2.7587,-2.759,-2.7566,-2.7611,-2.762,-2.7674,-2.7704,-2.765,-2.7654,-2.7818,-2.7821,-2.7824,-2.7854,0,0,0,0,0,0,-2.7421,-2.7436,-2.746,-2.7489,-2.7503,-2.7579,-2.7547,-2.755,-2.7572,-2.7569,-2.7601,-2.7604,-2.761,-2.7668,-2.7678,-2.7709,-2.7658,-2.7815,-2.7819,-2.7823,-2.7851,-2.7858,-2.7864,0,0,0,0,0,-2.7417,-2.7466,-2.7461,-2.7472,-2.7533,-2.7581,-2.7589,-2.7594,-2.7574,-2.7599,-2.7613,-2.7603,-2.7699,-2.7673,-2.7685,-2.7717,-2.7813,-2.7818,-2.7823,-2.7848,-2.7857,-2.7864,0,0,0,0,0,0,-2.7439,-2.747,-2.7464,-2.7524,-2.755,-2.7578,-2.7609,-2.7603,-2.7635,-2.7631,-2.7637,-2.7644,-2.7699,-2.7714,-2.7685,-2.7781,-2.7754,-2.7761,-2.7768,-2.7777,-2.7784,-2.7779,-2.7661,0,0,0,0,0,-2.7451,-2.7487,-2.7512,-2.7562,-2.7576,-2.759,-2.7611,-2.7613,-2.764,-2.7651,-2.7669,-2.7696,-2.7732,-2.7756,-2.779,-2.7854,-2.786,-2.7882,-2.7888,-2.7894,-2.79,-2.7934,-2.7944,-2.784,-2.784,-2.784,0,0,-2.7476,-2.7497,-2.7519,-2.7567,-2.7588,-2.7625,-2.7599,-2.764,-2.7668,-2.7657,-2.7709,-2.7724,-2.7754,-2.7813,-2.784,-2.7827,-2.793,-2.79,-2.7904,-2.7907,-2.794,-2.7949,-2.7958,-2.7844,-2.7843,-2.7843,0,0,-2.754,-2.756,-2.7604,-2.7625,-2.7655,-2.7665,-2.7676,-2.7705,-2.7714,-2.7767,-2.7759,-2.7793,-2.7855,-2.7877,-2.7896,-2.797,-2.7962,-2.7981,-2.8016,-2.805,-2.8058,-2.8065,-2.8091,-2.81,-2.7987,-2.7987,-2.7987,0,-2.7566,-2.7622,-2.7627,-2.7668,-2.769,-2.7682,-2.7727,-2.7747,-2.7788,-2.7803,-2.7788,-2.7866,-2.7886,-2.795,-2.7968,-2.7984,-2.7997,-2.7977,-2.8056,-2.8063,-2.807,-2.8095,-2.8104,-2.7989,-2.7989,-2.7989,-2.7989,0,-2.7653,-2.7692,-2.7724,-2.7763,-2.7789,-2.7832,-2.7843,-2.7869,-2.7869,-2.788,-2.7934,-2.7958,-2.7997,-2.8013,-2.8013,-2.8077,-2.8068,-2.8055,-2.8027,-2.8082,-2.8105,-2.8114,-2.7992,-2.7991,-2.7991,-2.799,0,0,-2.7732,-2.7774,-2.7785,-2.7803,-2.7837,-2.7867,-2.791,-2.7948,-2.797,-2.7999,-2.8035,-2.8088,-2.8076,-2.8098,-2.8102,-2.8131,-2.8187,-2.8114,-2.8115,-2.8126,-2.8258,-2.8267,-2.8278,-2.8183,-2.8185,-2.8186,-2.8255,0,-2.7798,-2.7872,-2.7879,-2.7946,-2.7982,-2.7976,-2.8013,-2.8039,-2.8051,-2.8083,-2.8097,-2.8134,-2.8117,-2.813,-2.8159,-2.8174,-2.8214,-2.8169,-2.8216,-2.8218,-2.8207,-2.829,-2.8299,-2.8363,-2.8265,-2.8266,-2.8267,0,-2.7885,-2.7916,-2.7986,-2.8016,-2.8031,-2.8064,-2.81,-2.8131,-2.816,-2.8167,-2.8192,-2.8192,-2.8236,-2.8209,-2.827,-2.824,-2.826,-2.827,-2.8273,-2.8276,-2.8245,-2.8294,-2.8384,-2.8393,-2.8282,-2.828,-2.8279,0,-2.7933,-2.7993,-2.8043,-2.8059,-2.8094,-2.8118,-2.8134,-2.8161,-2.8184,-2.8215,-2.823,-2.8267,-2.8287,-2.8315,-2.8325,-2.8304,-2.8386,-2.8359,-2.8392,-2.8392,-2.8408,-2.8407,-2.8501,-2.8424,-2.8423,-2.8423,-2.8423,0,-2.8006,-2.8049,-2.8066,-2.8096,-2.8145,-2.8152,-2.82,-2.8215,-2.824,-2.8273,-2.8271,-2.8303,-2.8314,-2.8348,-2.8356,-2.8405,-2.8415,-2.8421,-2.8423,-2.8421,-2.842,-2.8433,-2.8428,-2.8426,-2.8425,-2.8425,-2.8424,0,-2.8068,-2.8081,-2.8135,-2.8164,-2.8173,-2.8207,-2.8232,-2.8262,-2.8274,-2.8317,-2.8328,-2.8347,-2.8387,-2.8399,-2.8448,-2.8453,-2.851,-2.8509,-2.85,-2.85,-2.8533,-2.8529,-2.8637,-2.8651,-2.8565,-2.8566,-2.8567,0,-2.8113,-2.8146,-2.8179,-2.8201,-2.8218,-2.8254,-2.8277,-2.8286,-2.831,-2.8346,-2.8372,-2.8411,-2.8443,-2.8507,-2.8525,-2.8562,-2.8561,-2.8596,-2.8566,-2.8563,-2.856,-2.8557,-2.8561,-2.8601,-2.8602,-2.8603,-2.8603,0,-2.8191,-2.8195,-2.8228,-2.8264,-2.8292,-2.832,-2.8348,-2.8366,-2.838,-2.8407,-2.8448,-2.8472,-2.8522,-2.8561,-2.8599,-2.8616,-2.8612,-2.8613,-2.8622,-2.862,-2.8614,-2.8617,-2.8514,-2.861,-2.8609,-2.8609,-2.8609,-2.8608,-2.8245,-2.8274,-2.8302,-2.8339,-2.8361,-2.8386,-2.8416,-2.8432,-2.8465,-2.8506,-2.851,-2.8553,-2.8582,-2.8632,-2.8651,-2.8686,-2.8676,-2.869,-2.8693,-2.8696,-2.8698,-2.8609,-2.8693,-2.8693,-2.8693,-2.8693,-2.8692,0,-2.8322,-2.834,-2.8374,-2.8412,-2.8442,-2.8436,-2.8466,-2.8491,-2.8529,-2.8556,-2.8588,-2.8634,-2.8673,-2.8694,-2.8733,-2.8756,-2.8755,-2.8766,-2.8764,-2.8767,-2.8706,-2.8693,-2.8766,-2.8766,-2.8766,-2.8766,-2.8766,-2.8766,-2.8366,-2.8414,-2.8422,-2.8482,-2.85,-2.8542,-2.856,-2.8584,-2.8605,-2.8658,-2.8689,-2.8703,-2.8728,-2.8768,-2.8803,-2.8809,-2.8822,-2.8834,-2.8838,-2.8779,-2.8772,-2.8765,-2.8753,-2.8837,-2.8837,-2.8897,-2.8897,-2.8898]},{"header":{"parameterUnit":"m.s-1","parameterCategory":1,"la1":30.2991,"la2":30.254,"lo1":-89.0895,"lo2":-89.0444,"dy":0.0017,"dx":0.0017,"nx":28,"ny":28,"refTime":"2024-04-28T09:00:00:Z","depth":0,"parameterNumber":3,"parameterNumberName":"V-component_of_WINDS"},"data":[0,0,0,0,0,0,0,0,0,0,0,0,0,0,0,0,0,0,0,0,0,0,0,0,0,0,0,0,0,0,0,0,0,0,0,0,0,0,0,0,0,0,0,0,0,0,0,0,0,0,0,0,0,0,0,0,0,0,6.0677,6.0678,0,6.0776,6.0777,6.0778,6.0729,6.0727,6.0724,6.0722,6.0819,6.0824,6.0829,0,0,0,0,0,0,0,0,0,0,0,0,0,6.0442,6.0446,6.0677,6.0678,6.0679,6.0776,6.0777,6.0778,6.073,6.0727,6.0724,6.0721,6.0817,6.0823,6.0829,0,0,0,0,0,0,0,0,0,0,0,0,0,6.0543,6.0448,6.0677,6.0667,6.0667,6.0775,6.0777,6.0779,6.073,6.0727,6.0723,6.0719,6.0815,6.0823,6.083,6.0952,0,0,6.0853,6.0856,0,0,0,0,0,0,0,0,6.0537,6.0551,6.0667,6.0668,6.0668,6.0736,6.073,6.0837,6.0731,6.0706,6.0722,6.0717,6.0794,6.0803,6.083,6.0957,6.0961,6.0853,6.0858,6.0861,6.0863,0,0,0,0,0,0,0,6.053,6.0547,6.0716,6.0669,6.0669,6.0656,6.0666,6.075,6.077,6.0708,6.0705,6.0717,6.0794,6.0823,6.0832,6.0962,6.0853,6.086,6.0864,6.0867,6.1195,6.1199,0,0,0,0,0,0,6.0524,6.0541,6.0713,6.0719,6.0592,6.0664,6.0675,6.0718,6.0769,6.0774,6.0721,6.0715,6.0812,6.0823,6.0835,6.0982,6.0861,6.0868,6.0872,6.119,6.1196,6.12,0,0,0,0,0,0,6.0519,6.054,6.0709,6.0629,6.065,6.0672,6.0721,6.0722,6.0751,6.0779,6.0782,6.0747,6.081,6.0825,6.0924,6.0985,6.0871,6.0878,6.1185,6.1192,6.1198,6.1277,0,0,0,0,0,0,6.0513,6.0538,6.0586,6.0631,6.0654,6.0797,6.0725,6.0727,6.0765,6.0758,6.0804,6.0808,6.0808,6.0913,6.0931,6.0993,6.0884,6.118,6.1188,6.1196,6.1269,6.1285,6.1299,0,0,0,0,0,6.0504,6.0603,6.0589,6.061,6.0715,6.0801,6.0814,6.0813,6.077,6.0818,6.0835,6.0807,6.0975,6.0924,6.0944,6.1008,6.1176,6.1186,6.1195,6.1262,6.1282,6.1299,0,0,0,0,0,0,6.0563,6.0609,6.0593,6.071,6.0752,6.0793,6.0852,6.0834,6.0888,6.0879,6.0874,6.0884,6.0988,6.1008,6.095,6.113,6.1069,6.1083,6.1113,6.1132,6.1147,6.1139,6.089,0,0,0,0,0,6.059,6.0658,6.0693,6.0793,6.0815,6.083,6.0868,6.0863,6.0906,6.0923,6.0948,6.099,6.1052,6.1093,6.1152,6.1271,6.128,6.1326,6.1341,6.1353,6.1365,6.143,6.145,6.1231,6.1231,6.1231,0,0,6.0646,6.0679,6.0722,6.0806,6.0838,6.0907,6.0846,6.0921,6.0972,6.0934,6.103,6.105,6.1096,6.1206,6.1256,6.1226,6.1428,6.1365,6.1375,6.138,6.1442,6.1463,6.1481,6.1238,6.1237,6.1236,0,0,6.0783,6.0815,6.0902,6.0936,6.0986,6.0995,6.1016,6.106,6.1072,6.1168,6.1142,6.1201,6.1309,6.1343,6.1374,6.1524,6.15,6.1543,6.1622,6.1685,6.1702,6.1718,6.1771,6.179,6.1555,6.1556,6.1556,0,6.0846,6.095,6.0948,6.1027,6.1064,6.1034,6.1121,6.1154,6.122,6.1246,6.1212,6.1347,6.1375,6.1493,6.153,6.1556,6.1579,6.1538,6.17,6.1716,6.173,6.1781,6.1801,6.156,6.156,6.1559,6.1559,0,6.1025,6.1097,6.1161,6.1227,6.1272,6.1354,6.1363,6.1408,6.14,6.1413,6.1511,6.1544,6.161,6.1637,6.1629,6.1754,6.1734,6.1701,6.1639,6.1756,6.1803,6.1823,6.1568,6.1566,6.1564,6.1563,0,0,6.1201,6.1266,6.129,6.132,6.1373,6.1428,6.1509,6.1574,6.1613,6.1659,6.1726,6.1818,6.1787,6.1823,6.1818,6.1874,6.1991,6.1833,6.1834,6.1861,6.213,6.2156,6.2178,6.1975,6.1979,6.1982,6.2127,0,6.1342,6.1485,6.1486,6.1616,6.1683,6.1656,6.1726,6.1766,6.178,6.1838,6.1852,6.1918,6.1873,6.1894,6.1948,6.1965,6.2045,6.1955,6.2036,6.2039,6.2026,6.2203,6.223,6.2365,6.2145,6.2148,6.2151,0,6.1526,6.158,6.1718,6.1762,6.179,6.1853,6.1913,6.1969,6.2013,6.2019,6.206,6.2046,6.2127,6.2064,6.2175,6.2114,6.2147,6.216,6.2166,6.2173,6.2102,6.2215,6.2408,6.2428,6.218,6.2178,6.2176,0,6.1641,6.1748,6.1845,6.1871,6.1925,6.197,6.1994,6.2034,6.2073,6.2125,6.215,6.2211,6.2243,6.229,6.2293,6.2247,6.2405,6.2341,6.2411,6.2411,6.2446,6.2443,6.2646,6.2467,6.2467,6.2467,6.2466,0,6.1798,6.1884,6.1898,6.1957,6.2052,6.2051,6.2144,6.2164,6.22,6.2262,6.2242,6.23,6.2301,6.236,6.2363,6.2454,6.2469,6.2476,6.2475,6.2478,6.2477,6.2499,6.249,6.2472,6.2471,6.247,6.2469,0,6.1943,6.1956,6.2059,6.2102,6.2115,6.2183,6.2218,6.2274,6.2287,6.2365,6.2384,6.2403,6.2471,6.2479,6.2559,6.256,6.2671,6.266,6.2656,6.2655,6.2724,6.2718,6.2948,6.2978,6.278,6.2782,6.2783,0,6.2043,6.2108,6.2158,6.2199,6.2226,6.2292,6.2332,6.2334,6.2376,6.2432,6.2481,6.2548,6.2602,6.2712,6.2732,6.2793,6.2784,6.286,6.2793,6.2793,6.2785,6.2781,6.2788,6.2874,6.2876,6.2877,6.2879,0,6.2219,6.2222,6.2281,6.2344,6.2393,6.2442,6.2487,6.2521,6.2529,6.2577,6.2648,6.269,6.2772,6.2838,6.2898,6.2921,6.2902,6.29,6.292,6.2923,6.2918,6.2922,6.2692,6.2895,6.2893,6.2892,6.2891,6.2891,6.2344,6.2401,6.2445,6.2513,6.2547,6.2591,6.2646,6.2665,6.2725,6.2793,6.2789,6.2867,6.2909,6.2988,6.3016,6.3076,6.305,6.3078,6.3085,6.3092,6.3099,6.2908,6.3086,6.3086,6.3085,6.3085,6.3085,0,6.2519,6.2546,6.2608,6.2673,6.2726,6.2704,6.2753,6.2799,6.2868,6.2909,6.2963,6.3044,6.3109,6.3134,6.3197,6.324,6.3232,6.3256,6.3253,6.3259,6.3118,6.3096,6.3262,6.3261,6.3261,6.3261,6.3261,6.3261,6.2616,6.2711,6.272,6.2832,6.2858,6.2935,6.2966,6.3005,6.3038,6.313,6.3184,6.3201,6.3236,6.3301,6.3359,6.3364,6.3388,6.3416,6.3418,6.3287,6.3269,6.3252,6.323,6.3422,6.3422,6.3554,6.3555,6.3556]}]]